| time (UTC) | temp F | wind direction | speed knots | gust knots | rain 1hr in | rain 24hr in | rain mn in | humidity % | barometer mb |
| 20260905224704 | 68 | 202 | 0.9 | 0.9 | 0.00 | 0.00 | 0.00 | 62 | 1024.6 |
| 20260905221700 | 65 | 211 | 0.0 | 0.0 | 0.00 | 0.00 | 0.00 | 69 | 1024.8 |
| 20260905214657 | 64 | 182 | 0.9 | 0.9 | 0.00 | 0.00 | 0.00 | 72 | 1025.0 |
| 20260905211656 | 63 | 207 | 0.0 | 0.0 | 0.00 | 0.00 | 0.00 | 74 | 1025.2 |
| 20260905204652 | 63 | 152 | 0.0 | 0.0 | 0.00 | 0.00 | 0.00 | 73 | 1025.6 |
| 20260905201647 | 62 | 209 | 0.9 | 0.9 | 0.00 | 0.00 | 0.00 | 75 | 1025.4 |
| 20260905194643 | 62 | 184 | 0.0 | 0.9 | 0.00 | 0.00 | 0.00 | 78 | 1025.7 |
| 20260905191642 | 62 | 217 | 0.9 | 0.9 | 0.00 | 0.00 | 0.00 | 77 | 1025.9 |
| 20260905184637 | 64 | 197 | 0.0 | 0.9 | 0.00 | 0.00 | 0.00 | 74 | 1026.2 |
| 20260905181637 | 62 | 168 | 0.0 | 0.0 | 0.00 | 0.00 | 0.00 | 76 | 1026.2 |
| 20260905174634 | 61 | 111 | 0.0 | 0.9 | 0.00 | 0.00 | 0.00 | 78 | 1026.3 |
| 20260905171629 | 60 | 202 | 0.9 | 1.7 | 0.00 | 0.00 | 0.00 | 78 | 1026.2 |
| 20260905164625 | 60 | 133 | 0.9 | 1.7 | 0.00 | 0.00 | 0.00 | 80 | 1025.9 |
| 20260905161623 | 59 | 217 | 0.0 | 0.9 | 0.00 | 0.00 | 0.00 | 83 | 1026.0 |
| 20260905154619 | 59 | 193 | 0.0 | 0.9 | 0.00 | 0.00 | 0.00 | 85 | 1026.0 |
| 20260905151614 | 55 | 186 | 0.9 | 0.9 | 0.00 | 0.00 | 0.00 | 97 | 1025.9 |
| 20260905144614 | 51 | 200 | 0.0 | 0.9 | 0.00 | 0.00 | 0.00 | 99 | 1025.9 |
| 20260905141613 | 50 | 200 | 0.0 | 0.0 | 0.00 | 0.00 | 0.00 | 99 | 1025.4 |
| 20260905134612 | 50 | 200 | 0.0 | 0.0 | 0.00 | 0.00 | 0.00 | 99 | 1025.3 |
| 20260905131608 | 49 | 200 | 0.0 | 0.0 | 0.00 | 0.00 | 0.00 | 99 | 1025.4 |
| 20260905124607 | 49 | 210 | 0.0 | 0.0 | 0.00 | 0.00 | 0.00 | 99 | 1025.2 |
| 20260905121607 | 49 | 183 | 0.9 | 1.7 | 0.00 | 0.00 | 0.00 | 99 | 1025.1 |
| 20260905114601 | 49 | 194 | 0.0 | 0.0 | 0.00 | 0.00 | 0.00 | 99 | 1025.0 |
| 20260905111600 | 49 | 199 | 0.0 | 0.0 | 0.00 | 0.00 | 0.00 | 99 | 1024.9 |
| 20260905104555 | 50 | 200 | 0.0 | 0.0 | 0.00 | 0.00 | 0.00 | 99 | 1024.9 |
| 20260905101554 | 50 | 205 | 0.0 | 0.0 | 0.00 | 0.00 | 0.00 | 99 | 1024.7 |
| 20260905094551 | 50 | 194 | 0.9 | 1.7 | 0.00 | 0.00 | 0.00 | 99 | 1024.7 |
| 20260905091547 | 50 | 199 | 0.0 | 0.0 | 0.00 | 0.00 | 0.00 | 99 | 1024.8 |
| 20260905084543 | 51 | 202 | 0.0 | 0.0 | 0.00 | 0.00 | 0.00 | 99 | 1024.5 |
| 20260905081543 | 52 | 198 | 0.0 | 0.0 | 0.00 | 0.00 | 0.00 | 99 | 1024.3 |
| 20260905074543 | 52 | 199 | 0.0 | 0.0 | 0.00 | 0.00 | 0.00 | 99 | 1024.4 |
| 20260905071539 | 53 | 201 | 0.0 | 0.0 | 0.00 | 0.00 | 0.00 | 99 | 1024.3 |
| 20260905064535 | 54 | 183 | 0.0 | 0.0 | 0.00 | 0.00 | 0.00 | 99 | 1024.0 |
| 20260905061533 | 55 | 227 | 0.0 | 0.0 | 0.00 | 0.00 | 0.00 | 97 | 1023.5 |
| 20260905054531 | 55 | 200 | 0.0 | 0.0 | 0.00 | 0.00 | 0.00 | 99 | 1023.2 |
| 20260905051529 | 55 | 194 | 0.0 | 0.0 | 0.00 | 0.00 | 0.00 | 99 | 1023.4 |
| 20260905044526 | 56 | 204 | 0.0 | 0.0 | 0.00 | 0.00 | 0.00 | 97 | 1023.5 |
| 20260905041522 | 57 | 69 | 1.7 | 1.7 | 0.00 | 0.00 | 0.00 | 91 | 1023.3 |
| 20260905034521 | 57 | 204 | 0.0 | 0.0 | 0.00 | 0.00 | 0.00 | 93 | 1023.3 |
| 20260905031520 | 57 | 206 | 0.0 | 0.0 | 0.00 | 0.00 | 0.00 | 97 | 1023.2 |
| 20260905024518 | 59 | 190 | 0.9 | 0.9 | 0.00 | 0.00 | 0.00 | 89 | 1022.9 |
| 20260905021515 | 60 | 196 | 0.0 | 0.0 | 0.00 | 0.00 | 0.00 | 87 | 1022.6 |
| 20260905014510 | 60 | 200 | 0.9 | 0.9 | 0.00 | 0.00 | 0.00 | 85 | 1022.9 |
| 20260905011508 | 61 | 76 | 1.7 | 2.6 | 0.00 | 0.00 | 0.00 | 83 | 1022.6 |
| 20260905004508 | 61 | 179 | 0.9 | 1.7 | 0.00 | 0.00 | 0.00 | 84 | 1022.2 |
| 20260905001508 | 62 | 199 | 0.9 | 0.9 | 0.00 | 0.00 | 0.00 | 83 | 1021.9 |
| 20260904234506 | 64 | 12 | 1.7 | 1.7 | 0.00 | 0.00 | 0.00 | 66 | 1022.0 |
| 20260904231505 | 69 | 215 | 0.0 | 0.0 | 0.00 | 0.00 | 0.00 | 57 | 1021.5 |